Weather in Insar

Russia / Republic of Mordovia     53°51′59″N   44°22′20″E
В апреле 2022 года жителям России запретили посещать сайт meteo.paraplan.net по решению Генеральной прокуратуры. Аудитория сайта уменьшилась в 10 раз. Владельцы сайта не видят смысла в поддержке погодного сервера в таких условиях. Сайт будет закрыт в октябре.
temp.,
°C
wind,
m/s
gust,
m/s
humid.,
%
clouds,
%
prec.,
mm/h
press.,
hPa
HPBL,
m
4 october, tue
tue400:00+9sse37854 0.0 1015120
03:00+8se35937 0.0 1016108
06:00+8se399698 0.0 1017205
09:00+12sse6108780 0.1 1017540
12:00+15sse7106694 0.0 10171211
15:00+16sse71063100 0.0 10171463
18:00+13sse71477100 0.1 1017626
21:00+11sse81591100 0.3 1017626
5 october, wed
wed500:00+10sse71491100 0.6 1017602
03:00+10sse71391100 0.8 1017553
06:00+11s71192100 0.8 1017775
09:00+12ssw7107355 0.9 10171014
12:00+14sw7105614 0.1 10171571
15:00+12sw5959100 0.1 10171276
18:00+11sw51068100 0.1 10171201
21:00+9sw61084100 1.2 1017994
6 october, thu
thu600:00+8wsw488398 0.6 1017852
03:00+6wsw588999 0.8 1017660
06:00+6w4888100 0.4 1017976
09:00+6wnw478198 0.6 1018799
12:00+7wnw5771100 0.1 10191005
15:00+9w566395 0.2 10191137
18:00+6w358181 0.0 1020103
21:00+5wsw238890 0.1 102169
7 october, fri
fri700:00+5wsw348899 0.0 102075
03:00+5ssw3796100 0.0 1019148
06:00+8ssw51196100 0.2 1017374
09:00+11wsw7128661 0.2 1016572
12:00+12wnw61086100 0.0 1017739
15:00+12wnw71075100 0.0 10181024
18:00+11wnw61072100 0.0 1020874
21:00+10wnw61175100 0.0 10221006
8 october, sat
sat800:00+9w613755 0.0 1022462
03:00+6wnw410890 0.0 1024298
06:00+5w38961 0.0 1025201
09:00+9wnw46800 0.0 1026341
12:00+13w56610 0.0 1026846
15:00+14w45540 0.0 1025912
18:00+10sw33725 0.0 102539
21:00+8sw35765 0.0 102581